Time,TemperatureF,DewpointF,PressureIn,WindDirection,WindDirectionDegrees,WindSpeedMPH,WindSpeedGustMPH,Humidity,HourlyPrecipIn,Conditions,Clouds,dailyrainin,SoftwareType,DateUTC
2013-01-10 00:03:00,51.0,49.0,30.40,North,360,0.0,-999.0,93,-99.99,,,-99.99,,2013-01-10 05:03:00,
2013-01-10 00:12:00,51.0,49.0,30.40,North,360,0.0,-999.0,93,-99.99,,,-99.99,,2013-01-10 05:12:00,
2013-01-10 00:22:00,51.0,50.0,30.41,North,360,0.0,-999.0,95,-99.99,,,-99.99,,2013-01-10 05:22:00,
2013-01-10 00:33:00,51.0,50.0,30.41,North,360,0.0,-999.0,96,-99.99,,,-99.99,,2013-01-10 05:33:00,
2013-01-10 00:43:00,51.0,50.0,30.41,North,360,0.0,-999.0,96,-99.99,,,-99.99,,2013-01-10 05:43:00,
2013-01-10 00:52:00,53.0,51.0,30.40,North,360,0.0,-999.0,94,-99.99,,,-99.99,,2013-01-10 05:52:00,
2013-01-10 01:02:00,53.0,51.0,30.39,North,360,0.0,-999.0,93,-99.99,,,-99.99,,2013-01-10 06:02:00,
2013-01-10 01:12:00,53.0,51.0,30.39,North,360,0.0,-999.0,93,-99.99,,,-99.99,,2013-01-10 06:12:00,
2013-01-10 01:22:00,53.0,51.0,30.39,North,360,0.0,-999.0,93,-99.99,,,-99.99,,2013-01-10 06:22:00,
2013-01-10 01:32:00,51.0,49.0,30.41,North,360,0.0,-999.0,93,-99.99,,,-99.99,,2013-01-10 06:32:00,
2013-01-10 01:42:00,51.0,49.0,30.41,North,360,0.0,-999.0,93,-99.99,,,-99.99,,2013-01-10 06:42:00,
2013-01-10 01:52:00,50.0,48.0,30.41,North,360,2.0,-999.0,92,-99.99,,,-99.99,,2013-01-10 06:52:00,
2013-01-10 02:02:00,50.0,47.0,30.41,North,360,2.0,-999.0,91,-99.99,,,-99.99,,2013-01-10 07:02:00,
2013-01-10 02:12:00,50.0,47.0,30.41,North,360,2.0,-999.0,91,-99.99,,,-99.99,,2013-01-10 07:12:00,
2013-01-10 02:22:00,49.0,46.0,30.41,North,360,2.0,-999.0,91,-99.99,,,-99.99,,2013-01-10 07:22:00,
2013-01-10 02:32:00,49.0,47.0,30.40,North,360,2.0,-999.0,92,-99.99,,,-99.99,,2013-01-10 07:32:00,
2013-01-10 02:42:00,49.0,47.0,30.40,North,360,2.0,-999.0,92,-99.99,,,-99.99,,2013-01-10 07:42:00,
2013-01-10 02:52:00,49.0,47.0,30.41,North,360,3.0,-999.0,92,-99.99,,,-99.99,,2013-01-10 07:52:00,
2013-01-10 03:02:00,49.0,47.0,30.42,North,360,2.0,-999.0,92,-99.99,,,-99.99,,2013-01-10 08:02:00,
2013-01-10 03:12:00,49.0,47.0,30.42,North,360,2.0,-999.0,92,-99.99,,,-99.99,,2013-01-10 08:12:00,
2013-01-10 03:22:00,49.0,46.0,30.42,North,360,2.0,-999.0,91,-99.99,,,-99.99,,2013-01-10 08:22:00,
2013-01-10 03:32:00,49.0,46.0,30.41,North,360,3.0,-999.0,89,-99.99,,,-99.99,,2013-01-10 08:32:00,
2013-01-10 03:42:00,49.0,46.0,30.41,North,360,3.0,-999.0,89,-99.99,,,-99.99,,2013-01-10 08:42:00,
2013-01-10 03:52:00,50.0,47.0,30.41,North,360,3.0,-999.0,89,-99.99,,,-99.99,,2013-01-10 08:52:00,
2013-01-10 04:02:00,50.0,47.0,30.41,North,360,0.0,-999.0,90,-99.99,,,-99.99,,2013-01-10 09:02:00,
2013-01-10 04:12:00,50.0,47.0,30.41,North,360,0.0,-999.0,90,-99.99,,,-99.99,,2013-01-10 09:12:00,
2013-01-10 04:22:00,50.0,47.0,30.41,North,360,2.0,-999.0,89,-99.99,,,-99.99,,2013-01-10 09:22:00,
2013-01-10 04:32:00,50.0,47.0,30.41,North,360,3.0,-999.0,90,-99.99,,,-99.99,,2013-01-10 09:32:00,
2013-01-10 04:42:00,50.0,47.0,30.41,North,360,3.0,-999.0,90,-99.99,,,-99.99,,2013-01-10 09:42:00,
2013-01-10 04:52:00,50.0,47.0,30.40,North,360,2.0,-999.0,90,-99.99,,,-99.99,,2013-01-10 09:52:00,
2013-01-10 05:03:00,50.0,47.0,30.40,North,360,1.0,-999.0,91,-99.99,,,-99.99,,2013-01-10 10:03:00,
2013-01-10 05:12:00,50.0,47.0,30.40,North,360,1.0,-999.0,91,-99.99,,,-99.99,,2013-01-10 10:12:00,
2013-01-10 05:22:00,50.0,48.0,30.39,North,360,0.0,-999.0,92,-99.99,,,-99.99,,2013-01-10 10:22:00,
2013-01-10 05:32:00,50.0,48.0,30.40,North,360,0.0,-999.0,92,-99.99,,,-99.99,,2013-01-10 10:32:00,
2013-01-10 05:42:00,50.0,48.0,30.40,North,360,0.0,-999.0,92,-99.99,,,-99.99,,2013-01-10 10:42:00,
2013-01-10 05:52:00,50.0,48.0,30.41,North,360,0.0,-999.0,93,-99.99,,,-99.99,,2013-01-10 10:52:00,
2013-01-10 06:03:00,50.0,48.0,30.41,North,360,0.0,-999.0,93,-99.99,,,-99.99,,2013-01-10 11:03:00,
2013-01-10 06:12:00,50.0,48.0,30.41,North,360,0.0,-999.0,93,-99.99,,,-99.99,,2013-01-10 11:12:00,
2013-01-10 06:22:00,50.0,48.0,30.39,North,360,2.0,-999.0,94,-99.99,,,-99.99,,2013-01-10 11:22:00,
2013-01-10 06:33:00,50.0,48.0,30.39,North,360,1.0,-999.0,94,-99.99,,,-99.99,,2013-01-10 11:33:00,
2013-01-10 06:43:00,50.0,48.0,30.39,North,360,1.0,-999.0,94,-99.99,,,-99.99,,2013-01-10 11:43:00,
2013-01-10 06:52:00,49.0,48.0,30.40,North,360,2.0,-999.0,95,-99.99,,,-99.99,,2013-01-10 11:52:00,
2013-01-10 07:03:00,49.0,48.0,30.40,North,360,1.0,-999.0,96,-99.99,,,-99.99,,2013-01-10 12:03:00,
2013-01-10 07:12:00,49.0,48.0,30.40,North,360,1.0,-999.0,96,-99.99,,,-99.99,,2013-01-10 12:12:00,
2013-01-10 07:22:00,49.0,48.0,30.40,North,360,1.0,-999.0,96,-99.99,,,-99.99,,2013-01-10 12:22:00,
2013-01-10 07:33:00,50.0,49.0,30.39,North,360,4.0,-999.0,97,-99.99,,,-99.99,,2013-01-10 12:33:00,
2013-01-10 07:43:00,50.0,49.0,30.39,North,360,4.0,-999.0,97,-99.99,,,-99.99,,2013-01-10 12:43:00,
2013-01-10 07:53:00,50.0,49.0,30.39,North,360,5.0,-999.0,95,-99.99,,,-99.99,,2013-01-10 12:53:00,
2013-01-10 08:02:00,50.0,49.0,30.40,North,360,4.0,-999.0,95,-99.99,,,-99.99,,2013-01-10 13:02:00,
2013-01-10 08:12:00,50.0,49.0,30.40,North,360,4.0,-999.0,95,-99.99,,,-99.99,,2013-01-10 13:12:00,
2013-01-10 08:22:00,50.0,49.0,30.40,North,360,4.0,-999.0,95,-99.99,,,-99.99,,2013-01-10 13:22:00,
2013-01-10 08:32:00,50.0,49.0,30.40,North,360,4.0,-999.0,95,-99.99,,,-99.99,,2013-01-10 13:32:00,
2013-01-10 08:42:00,50.0,49.0,30.40,North,360,4.0,-999.0,95,-99.99,,,-99.99,,2013-01-10 13:42:00,
2013-01-10 08:52:00,50.0,49.0,30.41,North,360,3.0,-999.0,95,-99.99,,,-99.99,,2013-01-10 13:52:00,
2013-01-10 09:02:00,50.0,49.0,30.41,North,360,3.0,-999.0,95,-99.99,,,-99.99,,2013-01-10 14:02:00,
2013-01-10 09:12:00,50.0,49.0,30.41,North,360,3.0,-999.0,95,-99.99,,,-99.99,,2013-01-10 14:12:00,
2013-01-10 09:22:00,50.0,48.0,30.41,North,360,5.0,-999.0,93,-99.99,,,-99.99,,2013-01-10 14:22:00,
2013-01-10 09:33:00,50.0,48.0,30.41,North,360,5.0,-999.0,92,-99.99,,,-99.99,,2013-01-10 14:33:00,
2013-01-10 09:43:00,50.0,48.0,30.41,North,360,5.0,-999.0,92,-99.99,,,-99.99,,2013-01-10 14:43:00,
2013-01-10 09:53:00,50.0,47.0,30.41,North,360,4.0,-999.0,91,-99.99,,,-99.99,,2013-01-10 14:53:00,
2013-01-10 10:03:00,51.0,48.0,30.42,North,360,5.0,-999.0,90,-99.99,,,-99.99,,2013-01-10 15:03:00,
2013-01-10 10:12:00,51.0,48.0,30.42,North,360,5.0,-999.0,90,-99.99,,,-99.99,,2013-01-10 15:12:00,
2013-01-10 10:23:00,51.0,48.0,30.42,North,360,5.0,-999.0,90,-99.99,,,-99.99,,2013-01-10 15:23:00,
2013-01-10 10:33:00,51.0,48.0,30.41,North,360,7.0,-999.0,88,-99.99,,,-99.99,,2013-01-10 15:33:00,
2013-01-10 10:43:00,51.0,48.0,30.41,North,360,7.0,-999.0,88,-99.99,,,-99.99,,2013-01-10 15:43:00,
2013-01-10 10:53:00,51.0,47.0,30.41,North,360,7.0,-999.0,87,-99.99,,,-99.99,,2013-01-10 15:53:00,
2013-01-10 11:03:00,51.0,47.0,30.41,North,360,7.0,-999.0,87,-99.99,,,-99.99,,2013-01-10 16:03:00,
2013-01-10 11:13:00,51.0,47.0,30.41,North,360,7.0,-999.0,87,-99.99,,,-99.99,,2013-01-10 16:13:00,
2013-01-10 11:23:00,51.0,47.0,30.41,North,360,5.0,-999.0,87,-99.99,,,-99.99,,2013-01-10 16:23:00,
2013-01-10 11:33:00,51.0,47.0,30.42,North,360,5.0,-999.0,87,-99.99,,,-99.99,,2013-01-10 16:33:00,
2013-01-10 11:43:00,51.0,47.0,30.42,North,360,5.0,-999.0,87,-99.99,,,-99.99,,2013-01-10 16:43:00,
2013-01-10 11:53:00,51.0,47.0,30.42,North,360,5.0,-999.0,85,-99.99,,,-99.99,,2013-01-10 16:53:00,
2013-01-10 12:03:00,52.0,48.0,30.41,North,360,5.0,-999.0,85,-99.99,,,-99.99,,2013-01-10 17:03:00,
2013-01-10 12:12:00,52.0,48.0,30.41,North,360,5.0,-999.0,85,-99.99,,,-99.99,,2013-01-10 17:12:00,
2013-01-10 12:22:00,52.0,47.0,30.40,North,360,6.0,-999.0,84,-99.99,,,-99.99,,2013-01-10 17:22:00,
2013-01-10 12:33:00,52.0,47.0,30.39,North,360,7.0,-999.0,83,-99.99,,,-99.99,,2013-01-10 17:33:00,
2013-01-10 12:43:00,52.0,47.0,30.39,North,360,7.0,-999.0,83,-99.99,,,-99.99,,2013-01-10 17:43:00,
2013-01-10 12:53:00,52.0,47.0,30.38,North,360,7.0,-999.0,84,-99.99,,,-99.99,,2013-01-10 17:53:00,
2013-01-10 13:03:00,52.0,47.0,30.38,North,360,7.0,-999.0,84,-99.99,,,-99.99,,2013-01-10 18:03:00,
2013-01-10 13:12:00,52.0,47.0,30.37,North,360,7.0,-999.0,82,-99.99,,,-99.99,,2013-01-10 18:12:00,
2013-01-10 13:23:00,52.0,47.0,30.37,North,360,7.0,-999.0,82,-99.99,,,-99.99,,2013-01-10 18:23:00,
2013-01-10 13:33:00,52.0,47.0,30.37,North,360,8.0,-999.0,82,-99.99,,,-99.99,,2013-01-10 18:33:00,
2013-01-10 13:43:00,52.0,46.0,30.35,North,360,8.0,-999.0,81,-99.99,,,-99.99,,2013-01-10 18:43:00,
2013-01-10 13:53:00,52.0,46.0,30.35,North,360,8.0,-999.0,81,-99.99,,,-99.99,,2013-01-10 18:53:00,
2013-01-10 14:03:00,52.0,46.0,30.35,North,360,8.0,-999.0,81,-99.99,,,-99.99,,2013-01-10 19:03:00,
2013-01-10 14:13:00,52.0,47.0,30.35,North,360,8.0,-999.0,82,-99.99,,,-99.99,,2013-01-10 19:13:00,
2013-01-10 14:23:00,52.0,47.0,30.35,North,360,8.0,-999.0,82,-99.99,,,-99.99,,2013-01-10 19:23:00,
2013-01-10 14:33:00,52.0,47.0,30.35,North,360,8.0,-999.0,82,-99.99,,,-99.99,,2013-01-10 19:33:00,
2013-01-10 14:43:00,52.0,47.0,30.35,North,360,8.0,-999.0,82,-99.99,,,-99.99,,2013-01-10 19:43:00,
2013-01-10 15:03:00,52.0,47.0,30.34,North,360,7.0,-999.0,82,-99.99,,,-99.99,,2013-01-10 20:03:00,
2013-01-10 15:13:00,52.0,47.0,30.34,North,360,7.0,-999.0,82,-99.99,,,-99.99,,2013-01-10 20:13:00,
2013-01-10 15:24:00,52.0,47.0,30.34,North,360,8.0,-999.0,84,-99.99,,,-99.99,,2013-01-10 20:24:00,
2013-01-10 15:33:00,51.0,47.0,30.34,North,360,9.0,-999.0,85,-99.99,,,-99.99,,2013-01-10 20:33:00,
2013-01-10 15:43:00,51.0,47.0,30.34,North,360,9.0,-999.0,85,-99.99,,,-99.99,,2013-01-10 20:43:00,
2013-01-10 15:53:00,53.0,48.0,30.33,North,360,8.0,-999.0,84,-99.99,,,-99.99,,2013-01-10 20:53:00,
2013-01-10 16:04:00,53.0,48.0,30.33,North,360,8.0,-999.0,84,-99.99,,,-99.99,,2013-01-10 21:04:00,
2013-01-10 16:13:00,51.0,47.0,30.34,North,360,9.0,-999.0,87,-99.99,,,-99.99,,2013-01-10 21:13:00,
2013-01-10 16:23:00,51.0,47.0,30.34,North,360,9.0,-999.0,87,-99.99,,,-99.99,,2013-01-10 21:23:00,
2013-01-10 16:33:00,52.0,49.0,30.33,North,360,9.0,-999.0,88,-99.99,,,-99.99,,2013-01-10 21:33:00,
2013-01-10 16:43:00,52.0,49.0,30.33,North,360,9.0,-999.0,88,-99.99,,,-99.99,,2013-01-10 21:43:00,
2013-01-10 16:53:00,51.0,48.0,30.34,North,360,9.0,-999.0,89,-99.99,,,-99.99,,2013-01-10 21:53:00,
2013-01-10 17:04:00,51.0,48.0,30.36,North,360,7.0,-999.0,89,-99.99,,,-99.99,,2013-01-10 22:04:00,
2013-01-10 17:13:00,50.0,47.0,30.36,North,360,6.0,-999.0,90,-99.99,,,-99.99,,2013-01-10 22:13:00,
2013-01-10 17:27:00,50.0,47.0,30.36,North,360,6.0,-999.0,90,-99.99,,,-99.99,,2013-01-10 22:27:00,
2013-01-10 17:33:00,50.0,47.0,30.35,North,360,8.0,-999.0,91,-99.99,,,-99.99,,2013-01-10 22:33:00,
2013-01-10 17:43:00,50.0,47.0,30.35,North,360,8.0,-999.0,91,-99.99,,,-99.99,,2013-01-10 22:43:00,
2013-01-10 18:03:00,50.0,48.0,30.35,North,360,8.0,-999.0,92,-99.99,,,-99.99,,2013-01-10 23:03:00,
2013-01-10 18:13:00,49.0,47.0,30.32,North,360,9.0,-999.0,93,-99.99,,,-99.99,,2013-01-10 23:13:00,
2013-01-10 18:23:00,49.0,47.0,30.32,North,360,9.0,-999.0,93,-99.99,,,-99.99,,2013-01-10 23:23:00,
2013-01-10 18:33:00,49.0,47.0,30.33,North,360,10.0,-999.0,93,-99.99,,,-99.99,,2013-01-10 23:33:00,
2013-01-10 18:43:00,49.0,47.0,30.33,North,360,10.0,-999.0,93,-99.99,,,-99.99,,2013-01-10 23:43:00,
2013-01-10 18:53:00,49.0,47.0,30.33,North,360,9.0,-999.0,94,-99.99,,,-99.99,,2013-01-10 23:53:00,
2013-01-10 19:03:00,49.0,47.0,30.33,North,360,9.0,-999.0,94,-99.99,,,-99.99,,2013-01-11 00:03:00,
2013-01-10 19:13:00,49.0,47.0,30.34,North,360,10.0,-999.0,94,-99.99,,,-99.99,,2013-01-11 00:13:00,
2013-01-10 19:23:00,49.0,47.0,30.34,North,360,10.0,-999.0,94,-99.99,,,-99.99,,2013-01-11 00:23:00,
2013-01-10 19:33:00,49.0,47.0,30.34,North,360,10.0,-999.0,94,-99.99,,,-99.99,,2013-01-11 00:33:00,
2013-01-10 19:43:00,49.0,47.0,30.34,North,360,10.0,-999.0,94,-99.99,,,-99.99,,2013-01-11 00:43:00,
2013-01-10 19:52:00,48.0,46.0,30.33,North,360,10.0,-999.0,94,-99.99,,,-99.99,,2013-01-11 00:52:00,
2013-01-10 20:03:00,48.0,47.0,30.32,North,360,11.0,-999.0,95,-99.99,,,-99.99,,2013-01-11 01:03:00,
2013-01-10 20:13:00,48.0,47.0,30.32,North,360,11.0,-999.0,95,-99.99,,,-99.99,,2013-01-11 01:13:00,
2013-01-10 20:23:00,48.0,47.0,30.32,North,360,11.0,-999.0,95,-99.99,,,-99.99,,2013-01-11 01:23:00,
2013-01-10 20:34:00,48.0,47.0,30.30,North,360,12.0,-999.0,95,-99.99,,,-99.99,,2013-01-11 01:34:00,
2013-01-10 20:43:00,48.0,47.0,30.30,North,360,12.0,-999.0,95,-99.99,,,-99.99,,2013-01-11 01:43:00,
2013-01-10 20:53:00,48.0,47.0,30.30,North,360,13.0,-999.0,95,-99.99,,,-99.99,,2013-01-11 01:53:00,
2013-01-10 21:03:00,48.0,47.0,30.31,North,360,12.0,-999.0,95,-99.99,,,-99.99,,2013-01-11 02:03:00,
2013-01-10 21:13:00,48.0,47.0,30.31,North,360,12.0,-999.0,95,-99.99,,,-99.99,,2013-01-11 02:13:00,
2013-01-10 21:23:00,48.0,47.0,30.30,North,360,12.0,-999.0,95,-99.99,,,-99.99,,2013-01-11 02:23:00,
2013-01-10 21:33:00,48.0,47.0,30.29,North,360,11.0,-999.0,95,-99.99,,,-99.99,,2013-01-11 02:33:00,
2013-01-10 21:43:00,48.0,47.0,30.29,North,360,11.0,-999.0,95,-99.99,,,-99.99,,2013-01-11 02:43:00,
2013-01-10 21:53:00,48.0,47.0,30.29,North,360,11.0,-999.0,96,-99.99,,,-99.99,,2013-01-11 02:53:00,
2013-01-10 22:03:00,47.0,46.0,30.29,North,360,10.0,-999.0,97,-99.99,,,-99.99,,2013-01-11 03:03:00,
2013-01-10 22:13:00,47.0,46.0,30.29,North,360,10.0,-999.0,97,-99.99,,,-99.99,,2013-01-11 03:13:00,
2013-01-10 22:23:00,47.0,46.0,30.29,North,360,9.0,-999.0,97,-99.99,,,-99.99,,2013-01-11 03:23:00,
2013-01-10 22:33:00,47.0,46.0,30.27,North,360,10.0,-999.0,97,-99.99,,,-99.99,,2013-01-11 03:33:00,
2013-01-10 22:43:00,47.0,46.0,30.27,North,360,10.0,-999.0,97,-99.99,,,-99.99,,2013-01-11 03:43:00,
2013-01-10 22:53:00,47.0,46.0,30.27,North,360,14.0,-999.0,98,-99.99,,,-99.99,,2013-01-11 03:53:00,
2013-01-10 23:02:00,47.0,46.0,30.26,North,360,11.0,-999.0,98,-99.99,,,-99.99,,2013-01-11 04:02:00,
2013-01-10 23:12:00,47.0,46.0,30.26,North,360,11.0,-999.0,98,-99.99,,,-99.99,,2013-01-11 04:12:00,
2013-01-10 23:22:00,47.0,46.0,30.27,North,360,11.0,-999.0,98,-99.99,,,-99.99,,2013-01-11 04:22:00,
2013-01-10 23:33:00,47.0,46.0,30.25,North,360,11.0,-999.0,98,-99.99,,,-99.99,,2013-01-11 04:33:00,
2013-01-10 23:43:00,47.0,46.0,30.25,North,360,11.0,-999.0,98,-99.99,,,-99.99,,2013-01-11 04:43:00,
2013-01-10 23:52:00,47.0,46.0,30.24,North,360,11.0,-999.0,98,-99.99,,,-99.99,,2013-01-11 04:52:00,